Hourly Weather Piaseczno

Today, 8 July, Wednesday

Time Temperature Precipitation Wind Pressure Humidity
00:00 +12°C° 0 mm 2 mps 752 mmHg 79%
01:00 +12°C° 0 mm 2 mps 752 mmHg 78%
02:00 +12°C° 0 mm 2 mps 751 mmHg 78%
03:00 +12°C° 0 mm 2 mps 751 mmHg 77%
04:00 +11°C° 0 mm 3 mps 751 mmHg 76%
05:00 +13°C° 0 mm 3 mps 751 mmHg 73%
06:00 +14°C° 0 mm 4 mps 751 mmHg 71%
07:00 +17°C° 0 mm 4 mps 751 mmHg 69%
08:00 +15°C° 0.2 mm 4 mps 751 mmHg 70%
09:00 +15°C° 0.2 mm 4 mps 751 mmHg 71%
10:00 +15°C° 0.2 mm 5 mps 751 mmHg 72%
11:00 +15°C° 0.1 mm 5 mps 751 mmHg 70%
12:00 +16°C° 0.1 mm 5 mps 750 mmHg 68%
13:00 +16°C° 0.1 mm 5 mps 750 mmHg 66%
14:00 +16°C° 0.1 mm 5 mps 750 mmHg 65%
15:00 +17°C° 0.1 mm 5 mps 750 mmHg 64%
16:00 +17°C° 0.1 mm 5 mps 750 mmHg 63%
17:00 +18°C° 0 mm 4 mps 750 mmHg 67%
18:00 +17°C° 0 mm 3 mps 750 mmHg 71%
19:00 +16°C° 0 mm 3 mps 750 mmHg 75%
20:00 +14°C° 0.2 mm 3 mps 751 mmHg 78%
21:00 +14°C° 0.2 mm 3 mps 751 mmHg 82%
22:00 +13°C° 0.2 mm 3 mps 751 mmHg 85%
23:00 +12°C° 0 mm 3 mps 752 mmHg 88%

Tomorrow, 9 July, Thursday

Time Temperature Precipitation Wind Pressure Humidity
00:00 +12°C° 0 mm 3 mps 752 mmHg 90%
01:00 +12°C° 0 mm 3 mps 752 mmHg 92%
02:00 +11°C° 0 mm 3 mps 752 mmHg 93%
03:00 +11°C° 0 mm 3 mps 752 mmHg 93%
04:00 +10°C° 0 mm 3 mps 752 mmHg 94%
05:00 +12°C° 0 mm 3 mps 752 mmHg 90%
06:00 +13°C° 0 mm 3 mps 753 mmHg 85%
07:00 +16°C° 0 mm 3 mps 753 mmHg 80%
08:00 +17°C° 0.1 mm 3 mps 753 mmHg 74%
09:00 +18°C° 0.1 mm 3 mps 753 mmHg 69%
10:00 +19°C° 0.1 mm 3 mps 753 mmHg 63%
11:00 +20°C° 0.2 mm 3 mps 753 mmHg 61%
12:00 +21°C° 0.2 mm 3 mps 753 mmHg 59%
13:00 +21°C° 0.2 mm 4 mps 752 mmHg 58%
14:00 +21°C° 0.2 mm 3 mps 752 mmHg 57%
15:00 +21°C° 0.2 mm 3 mps 752 mmHg 57%
16:00 +22°C° 0.2 mm 3 mps 752 mmHg 56%
17:00 +21°C° 0 mm 2 mps 752 mmHg 61%
18:00 +20°C° 0 mm 2 mps 751 mmHg 67%
19:00 +20°C° 0 mm 1 mps 751 mmHg 72%
20:00 +19°C° 0 mm 2 mps 751 mmHg 72%
21:00 +18°C° 0 mm 2 mps 751 mmHg 72%
22:00 +18°C° 0 mm 3 mps 752 mmHg 72%
23:00 +18°C° 0.1 mm 3 mps 751 mmHg 76%

Day after tomorrow, 10 July, Friday

Time Temperature Precipitation Wind Pressure Humidity
00:00 +17°C° 0.1 mm 3 mps 751 mmHg 79%
01:00 +17°C° 0.1 mm 3 mps 750 mmHg 83%
02:00 +17°C° 0 mm 3 mps 750 mmHg 86%
03:00 +17°C° 0 mm 3 mps 750 mmHg 88%
04:00 +16°C° 0 mm 3 mps 750 mmHg 91%
05:00 +18°C° 0 mm 3 mps 750 mmHg 87%
06:00 +19°C° 0 mm 3 mps 749 mmHg 84%
07:00 +20°C° 0 mm 3 mps 749 mmHg 80%
08:00 +22°C° 0.5 mm 4 mps 749 mmHg 75%
09:00 +25°C° 0.5 mm 4 mps 749 mmHg 69%
10:00 +26°C° 0.5 mm 5 mps 749 mmHg 64%
11:00 +27°C° 0.4 mm 5 mps 749 mmHg 62%
12:00 +27°C° 0.4 mm 5 mps 749 mmHg 60%
13:00 +28°C° 0.4 mm 6 mps 748 mmHg 59%
14:00 +28°C° 0.2 mm 5 mps 748 mmHg 58%
15:00 +28°C° 0.2 mm 5 mps 748 mmHg 58%
16:00 +29°C° 0.2 mm 4 mps 748 mmHg 57%
17:00 +28°C° 0.1 mm 3 mps 748 mmHg 61%
18:00 +27°C° 0.1 mm 2 mps 748 mmHg 65%
19:00 +26°C° 0.1 mm 1 mps 748 mmHg 69%
20:00 +25°C° 0.3 mm 2 mps 748 mmHg 74%
21:00 +23°C° 0.3 mm 2 mps 748 mmHg 78%
22:00 +21°C° 0.3 mm 3 mps 748 mmHg 83%
23:00 +21°C° 0.9 mm 3 mps 748 mmHg 85%

11 July, Saturday

Time Temperature Precipitation Wind Pressure Humidity
00:00 +20°C° 0.9 mm 3 mps 748 mmHg 87%
01:00 +20°C° 0.9 mm 4 mps 748 mmHg 89%
02:00 +19°C° 1.6 mm 3 mps 748 mmHg 91%
03:00 +19°C° 1.6 mm 3 mps 749 mmHg 93%
04:00 +19°C° 1.6 mm 3 mps 749 mmHg 95%
05:00 +19°C° 0.1 mm 3 mps 749 mmHg 92%
06:00 +20°C° 0.1 mm 4 mps 750 mmHg 89%
07:00 +20°C° 0.1 mm 4 mps 750 mmHg 86%
08:00 +20°C° 0.1 mm 4 mps 751 mmHg 84%
09:00 +20°C° 0.1 mm 4 mps 751 mmHg 83%
10:00 +19°C° 0.1 mm 5 mps 752 mmHg 82%
11:00 +19°C° 0.7 mm 4 mps 752 mmHg 85%
12:00 +18°C° 0.7 mm 4 mps 752 mmHg 87%
13:00 +17°C° 0.7 mm 4 mps 753 mmHg 90%
14:00 +17°C° 1.1 mm 3 mps 753 mmHg 89%
15:00 +17°C° 1.1 mm 2 mps 753 mmHg 88%
16:00 +17°C° 1.1 mm 2 mps 754 mmHg 87%
17:00 +16°C° 0.6 mm 2 mps 754 mmHg 87%
18:00 +16°C° 0.6 mm 2 mps 754 mmHg 87%
19:00 +16°C° 0.6 mm 2 mps 755 mmHg 87%
20:00 +16°C° 0.2 mm 2 mps 755 mmHg 86%
21:00 +16°C° 0.2 mm 2 mps 755 mmHg 85%
22:00 +15°C° 0.2 mm 2 mps 755 mmHg 83%
23:00 +15°C° 0 mm 2 mps 755 mmHg 84%

12 July, Sunday

Time Temperature Precipitation Wind Pressure Humidity
00:00 +15°C° 0 mm 2 mps 755 mmHg 84%
01:00 +14°C° 0 mm 2 mps 755 mmHg 85%
02:00 +14°C° 0 mm 2 mps 756 mmHg 86%
03:00 +14°C° 0 mm 2 mps 756 mmHg 87%
04:00 +13°C° 0 mm 2 mps 756 mmHg 88%
05:00 +13°C° 0 mm 3 mps 756 mmHg 84%
06:00 +14°C° 0 mm 3 mps 756 mmHg 80%
07:00 +16°C° 0 mm 3 mps 756 mmHg 76%
08:00 +17°C° 0.1 mm 4 mps 756 mmHg 70%
09:00 +18°C° 0.1 mm 4 mps 756 mmHg 64%
10:00 +19°C° 0.1 mm 5 mps 756 mmHg 58%
11:00 +20°C° 0 mm 5 mps 756 mmHg 56%
12:00 +20°C° 0 mm 5 mps 756 mmHg 54%
13:00 +21°C° 0 mm 5 mps 756 mmHg 52%
14:00 +21°C° 0.1 mm 5 mps 756 mmHg 52%
15:00 +20°C° 0.1 mm 5 mps 756 mmHg 52%
16:00 +20°C° 0.1 mm 5 mps 756 mmHg 52%
17:00 +19°C° 0 mm 4 mps 756 mmHg 58%
18:00 +18°C° 0 mm 3 mps 756 mmHg 63%
19:00 +17°C° 0 mm 3 mps 756 mmHg 69%
20:00 +16°C° 0 mm 3 mps 757 mmHg 71%
21:00 +14°C° 0 mm 3 mps 757 mmHg 74%
22:00 +13°C° 0 mm 3 mps 757 mmHg 77%
23:00 +13°C° 0 mm 2 mps 757 mmHg 79%

13 July, Monday

Time Temperature Precipitation Wind Pressure Humidity
00:00 +13°C° 0 mm 2 mps 757 mmHg 80%
01:00 +12°C° 0 mm 2 mps 757 mmHg 82%
02:00 +12°C° 0 mm 2 mps 757 mmHg 83%
03:00 +12°C° 0 mm 2 mps 757 mmHg 85%
04:00 +10°C° 0 mm 2 mps 757 mmHg 86%
05:00 +12°C° 0 mm 3 mps 757 mmHg 81%
06:00 +13°C° 0 mm 3 mps 757 mmHg 76%
07:00 +16°C° 0 mm 3 mps 757 mmHg 71%
08:00 +17°C° 0.1 mm 4 mps 756 mmHg 69%
09:00 +18°C° 0.1 mm 4 mps 756 mmHg 66%
10:00 +19°C° 0.1 mm 5 mps 756 mmHg 64%
11:00 +19°C° 0.1 mm 5 mps 756 mmHg 62%
12:00 +20°C° 0.1 mm 5 mps 755 mmHg 61%
13:00 +20°C° 0.1 mm 5 mps 755 mmHg 60%
14:00 +21°C° 0.1 mm 5 mps 755 mmHg 60%
15:00 +21°C° 0.1 mm 5 mps 754 mmHg 60%
16:00 +21°C° 0.1 mm 4 mps 754 mmHg 60%
17:00 +20°C° 0.1 mm 4 mps 754 mmHg 66%
18:00 +19°C° 0.1 mm 3 mps 754 mmHg 71%
19:00 +18°C° 0.1 mm 3 mps 754 mmHg 77%
20:00 +17°C° 0 mm 2 mps 754 mmHg 80%
21:00 +16°C° 0 mm 2 mps 754 mmHg 83%
22:00 +15°C° 0 mm 2 mps 754 mmHg 85%
23:00 +14°C° 0 mm 2 mps 754 mmHg 87%
Show more